Flag Weather past 2 weeks in Fredrikstad, Norway

Now
45 °F

Fog.


Feels Like: 41 °F
Forecast: 53 / 55 °F
Wind: 7 mph from East

Location: Rygge

Current Time: Nov 1, 2014 at 4:14:12 AM

Latest Report: Nov 1, 2014 at 3:50 AM


Visibility: 2 mi

Pressure: 30.07 "Hg

Humidity: 100%

Dew point: 45 °F

Location of FredrikstadLocation

Historic Weather in Fredrikstad — Graph

°F

Fredrikstad temperature yesterday

Maximum temperature yesterday: 43 °F (at 12:20 PM)
Minimum temperature yesterday: 37 °F (at 2:20 AM)
Average temperature yesterday: 42 °F

Past Weeks' High & Low Weather Summary

 TemperatureHumidityPressure
High61 °F (Oct 20, 3:50 PM)100% (Oct 17, 3:20 AM)30.27 "Hg (Oct 17, 3:20 AM)
Low34 °F (Oct 30, 6:20 AM)50% (Oct 30, 1:20 PM)29.30 "Hg (Oct 20, 4:20 AM)
Average49 °F90%29.82 "Hg
* Reported Oct 17 3:20 AM — Nov 1 2:50 AM, Fredrikstad, Weather by CustomWeather, © 2014

Note: Actual official high and low records may vary slightly from our data, if they occured in-between our weather recording intervals... More about our weather records

Advertising

Fredrikstad weather history for previous 24 hours

 ConditionsComfort  
Time TempWeatherWind HumidityBarometerVisibility
2:50 AM
Nov 1
45 °FLow clouds.6 mph93%30.07 "Hg4 mi
2:20 AM45 °FFog.7 mph93%30.09 "Hg3 mi
1:50 AM45 °FLow clouds.8 mph93%30.09 "Hg4 mi
1:20 AM45 °FLow clouds.8 mph93%30.09 "Hg6 mi
12:50 AM43 °FDrizzle. Mostly cloudy.9 mph100%30.09 "Hg5 mi
12:20 AM43 °FDrizzle. Mostly cloudy.9 mph100%30.12 "Hg3 mi
11:50 PM
Oct 31
43 °FDrizzle. Overcast.8 mph100%30.12 "Hg4 mi
11:20 PM43 °FDrizzle. Mostly cloudy.7 mph100%30.12 "Hg5 mi
10:50 PM43 °FPassing clouds.7 mph93%30.15 "HgN/A
10:20 PM43 °FPassing clouds.8 mph93%30.15 "Hg5 mi
9:50 PM43 °FPassing clouds.8 mph93%30.15 "HgN/A
9:20 PM43 °FPassing clouds.9 mph93%30.15 "Hg4 mi
8:50 PM43 °FPassing clouds.8 mph93%30.18 "HgN/A
8:20 PM43 °FPassing clouds.7 mph93%30.18 "HgN/A
7:20 PM43 °FPassing clouds.8 mph93%30.18 "Hg5 mi
6:50 PM43 °FPassing clouds.8 mph93%30.18 "HgN/A
6:20 PM43 °FPassing clouds.9 mph93%30.18 "HgN/A
5:50 PM43 °FPassing clouds.7 mph93%30.18 "HgN/A
5:20 PM43 °FPassing clouds.8 mph93%30.18 "Hg3 mi
4:50 PM43 °FPartly cloudy.8 mph100%30.21 "Hg3 mi
4:20 PM43 °FLight rain. Broken clouds.7 mph100%30.21 "Hg5 mi
3:50 PM43 °FLight rain. Partly sunny.6 mph100%30.21 "HgN/A
3:20 PM43 °FLight rain. Partly sunny.6 mph100%30.21 "HgN/A
2:50 PM43 °FLight rain. Broken clouds.5 mph100%30.21 "HgN/A
2:20 PM43 °FLight rain. Partly sunny.5 mph100%30.24 "HgN/A
1:50 PM43 °FLight rain. Partly sunny.5 mph93%30.24 "HgN/A
1:20 PM43 °FLight rain. Partly sunny.3 mph100%30.24 "HgN/A
12:50 PM43 °FLight rain. Partly sunny.5 mph93%30.24 "HgN/A
12:20 PM43 °FLight rain. Partly sunny.3 mph93%30.24 "HgN/A
11:50 AM41 °FLight rain. Partly sunny.3 mph100%30.24 "HgN/A
11:20 AM41 °FDrizzle. Overcast.3 mph93%30.27 "HgN/A
10:50 AM41 °FDrizzle. Partly sunny.3 mph93%30.27 "HgN/A
10:20 AM41 °FPartly sunny.3 mph93%30.24 "HgN/A
9:50 AM41 °FOvercast.2 mph93%30.24 "HgN/A
9:20 AM41 °FPartly sunny.2 mph93%30.24 "HgN/A
8:50 AM41 °FPartly sunny.2 mph93%30.24 "HgN/A
8:20 AM41 °FPartly sunny.1 mph93%30.24 "HgN/A
7:50 AM41 °FPartly sunny.2 mph93%30.24 "HgN/A
7:20 AM41 °FPassing clouds.2 mph93%30.24 "HgN/A
6:50 AM41 °FPassing clouds.3 mph93%30.24 "HgN/A
6:20 AM41 °FPassing clouds.1 mph87%30.24 "HgN/A
5:50 AM41 °FMostly cloudy.3 mph87%30.24 "HgN/A
5:20 AM41 °FLight rain. Overcast.3 mph87%30.24 "HgN/A
4:50 AM39 °FOvercast.3 mph93%30.24 "HgN/A
4:20 AM39 °FMostly cloudy.3 mph93%30.24 "HgN/A
Weather by CustomWeather, © 2014

See weather overviewHow to use our weather pages